Home   Weather   Citrus Heights   Past weeks

Flag for USA Past Weather in Citrus Heights, California, USA — Yesterday and Last 2 Weeks

Now
54 °F

Overcast.


Feels Like: 52 °F
Forecast: 50 / 61 °F
Wind: 7 mph from Southeast

Location: Sacramento International Airport

Current Time: Apr 24, 2017 at 4:10:11 am

Latest Report: Apr 24, 2017 at 2:53 am


Visibility: 10 mi

Pressure: 29.94 "Hg

Humidity: 86%

Dew Point: 50 °F

Location of Citrus HeightsLocation

Past Weather in Citrus Heights — Graph

°F

Citrus Heights Temperature Yesterday

Maximum temperature yesterday: 71 °F (at 3:53 pm)
Minimum temperature yesterday: 49 °F (at 6:53 am)
Average temperature yesterday: 59 °F

High & Low Weather Summary for the Past Weeks

 TemperatureHumidityPressure
High78 °F (Apr 21, 5:53 pm)100% (Apr 9, 2:53 am)30.29 "Hg (Apr 9, 2:53 am)
Low38 °F (Apr 9, 4:53 am)27% (Apr 21, 4:53 pm)29.84 "Hg (Apr 12, 6:53 pm)
Average57 °F76%30.05 "Hg
* Reported Apr 9 2:53 am — Apr 24 2:53 am, Citrus Heights, Weather by CustomWeather, © 2017

Note: Actual official high and low records may vary slightly from our data, if they occured in-between our weather recording intervals... More about our weather records

Advertising

Citrus Heights Weather History for the Previous 24 Hours

Scroll right to see more
 ConditionsComfort  
Time TempWeatherWind HumidityBarometerVisibility
2:53 am
Mon, Apr 24
54 °FOvercast.7 mph86%29.94 "Hg10 mi
1:53 am54 °FOvercast.12 mph86%29.94 "Hg10 mi
12:53 am55 °FOvercast.9 mph83%29.94 "Hg10 mi
11:53 pm
Sun, Apr 23
55 °FPassing clouds.9 mph83%29.93 "Hg10 mi
10:53 pm55 °FPassing clouds.9 mph83%29.93 "Hg10 mi
9:53 pm57 °FPassing clouds.10 mph81%29.93 "Hg10 mi
8:53 pm59 °FPassing clouds.9 mph78%29.92 "Hg10 mi
7:53 pm62 °FPartly cloudy.14 mph70%29.90 "Hg10 mi
6:53 pm67 °FBroken clouds.10 mph61%29.90 "Hg10 mi
5:53 pm69 °FScattered clouds.16 mph57%29.91 "Hg10 mi
4:53 pm70 °FPartly sunny.15 mph55%29.91 "Hg10 mi
3:53 pm71 °FPartly sunny.13 mph49%29.92 "Hg10 mi
2:53 pm70 °FPartly sunny.8 mph53%29.94 "Hg10 mi
1:53 pm68 °FPartly sunny.7 mph57%29.96 "Hg10 mi
12:53 pm66 °FPartly sunny.5 mph56%29.96 "Hg10 mi
11:53 am63 °FPartly sunny.6 mph60%29.97 "Hg10 mi
10:53 am62 °FPassing clouds.7 mph60%29.96 "Hg10 mi
9:53 am59 °FSunny.5 mph69%29.95 "Hg10 mi
8:53 am56 °FPassing clouds.No wind81%29.94 "Hg10 mi
7:53 am53 °FScattered clouds.6 mph86%29.94 "Hg10 mi
6:53 am49 °FPartly sunny.3 mph97%29.93 "Hg10 mi
5:53 am51 °FPassing clouds.8 mph89%29.91 "Hg10 mi
4:53 am51 °FPassing clouds.7 mph92%29.91 "Hg10 mi
Weather by CustomWeather, © 2017

See weather overviewHow to use our weather pages